Presure
180 181 180 184 194 214 203 184 214 231 214 233 225 218 222 222 210 196 214 203 194 204 190 183 191 193 187 180 183 189 183 182 193 188 183 181 197 203 207 211 219 225 228 201 195
176 174 181 176 181 186 204 214 209 196 213 210 213 211 206 201 185 200 173 200 187 181 186 183 185 188 180 189 184 186 181 183 176 176 190 184 179 177 186 197 202 209 211 214 225
173 174 173 177 176 175 176 194 202 194 198 190 185 183 184 183 176 183 184 192 192 188 185 181 179 188 179 177 191 187 180 180 186 183 183 187 177 170 189 193 195 187 193 195 201
188 175 173 177 174 177 177 175 180 187 191 192 191 191 186 181 186 187 187 183 181 179 170 183 188 187 178 169 180 181 177 176 182 178 182 179 182 176 188 183 178 178 183 185 189
193 187 175 169 171 173 172 175 174 178 181 183 185 185 183 179 179 179 172 181 184 181 180 178 181 181 177 172 168 175 173 166 166 177 169 182 181 180 185 183 166 178 178 172 184
196 191 185 174 171 167 173 170 176 172 171 173 170 170 175 174 175 179 178 176 178 176 173 171 170 169 174 167 172 169 172 174 180 186 178 178 182 185 189 182 183 183 174 177 180
195 208 193 184 178 168 168 176 171 169 172 170 173 175 173 177 180 178 175 176 168 166 172 178 178 182 154 178 181 183 185 185 185 188 175 183 178 183 172 188 191 188 164 164 171
212 197 207 192 186 178 168 170 174 174 165 173 173 173 174 172 174 172 176 162 160 172 171 163 172 173 172 178 183 196 202 201 187 199 190 194 199 170 180 183 185 191 168 164 164
141 205 228 219 194 187 181 166 172 176 176 174 176 177 176 178 180 181 158 161 166 178 179 177 172 184 183 175 181 233 228 223 219 219 226 200 194 190 198 179 181 186 189 191 175
237 262 257 223 210 197 186 185 169 178 178 174 169 166 173 170 170 164 178 160 168 181 179 184 177 181 189 167 214 224 207 206 221 224 225 227 228 247 252 194 188 180 181 181 182
328 300 300 289 289 226 203 181 186 169 180 179 177 168 173 174 176 178 159 163 169 176 173 170 184 186 178 177 229 210 206 213 212 310 324 337 223 220 240 264 197 192 193 179 181
423 411 338 423 387 256 221 206 189 182 176 179 180 172 175 173 169 171 176 170 167 169 176 165 181 177 180 193 219 199 206 207 220 295 310 323 333 256 333 233 255 241 194 193 181
386 399 382 372 400 383 236 211 208 182 184 177 181 179 178 177 171 169 176 162 174 181 158 178 156 173 181 191 215 201 206 203 213 257 295 315 323 330 333 273 278 252 261 194 189
374 344 395 358 370 373 338 228 194 205 192 181 183 177 173 179 161 176 167 171 176 169 176 181 173 160 178 191 211 193 206 200 204 229 254 295 311 323 325 331 214 243 250 262 261
357 375 382 356 360 366 342 234 224 211 200 193 181 177 176 179 176 169 164 164 175 166 176 167 182 165 170 192 204 194 208 198 202 226 227 246 279 213 237 311 301 212 243 266 273
341 360 345 367 352 361 321 249 229 216 205 192 181 180 185 183 182 177 182 170 182 177 162 183 179 169 170 189 189 207 199 203 198 196 217 217 232 254 202 239 283 232 212 232 179
345 339 335 366 335 354 313 321 234 229 202 199 185 179 181 185 184 183 173 178 176 168 174 178 168 179 172 179 186 200 194 202 200 202 199 215 205 209 221 239 268 267 248 218 204
352 348 320 389 331 342 305 318 245 236 210 200 198 187 180 182 186 185 184 173 183 171 176 180 182 189 177 181 183 191 205 192 203 204 207 197 209 216 198 196 195 200 157 198 209
391 375 319 375 326 330 301 302 269 232 227 203 189 201 193 183 187 190 193 183 182 175 188 184 183 190 185 182 186 192 202 207 194 201 208 208 206 212 201 204 200 122 204 203 130
389 380 361 297 331 324 301 305 309 236 228 216 195 199 199 197 193 189 186 181 178 192 193 190 189 187 178 183 182 182 194 204 205 193 198 201 204 210 207 188 201 174 149 138 155
366 376 394 298 327 321 301 307 301 277 230 219 206 200 197 198 194 196 193 198 196 184 175 178 189 191 184 190 186 182 187 192 203 204 191 198 199 204 166 140 156 203 144 130 177
342 348 386 303 351 345 300 304 302 279 235 221 217 202 204 197 200 199 185 190 185 188 195 199 182 194 191 190 207 187 186 190 192 202 199 201 198 203 204 203 200 142 175 140 108
334 331 355 316 375 353 305 298 301 280 259 222 218 167 209 199 197 203 203 193 188 188 193 184 191 186 174 201 201 185 192 184 191 193 198 195 202 199 202 198 204 204 199 198 129
335 331 350 375 383 325 301 300 294 279 268 235 219 218 213 208 202 188 197 202 203 183 187 185 181 198 200 192 201 191 189 187 181 190 197 191 192 203 195 202 197 197 219 215 211
420 337 344 372 368 369 298 295 298 282 265 252 227 216 218 213 207 202 195 193 199 196 202 183 182 185 170 181 191 186 188 185 186 194 188 198 194 202 196 193 196 192 174 213 226
427 345 339 358 317 385 338 289 294 290 258 254 229 223 215 212 215 208 208 208 197 197 191 178 179 196 180 173 185 188 184 187 191 210 187 197 193 194 195 197 191 199 200 190 218
405 345 322 352 308 364 322 298 291 294 258 255 233 224 221 211 216 218 208 216 214 203 200 175 176 181 184 184 182 187 192 189 202 189 187 202 196 193 211 214 197 198 202 203 215
Wind_Speed
32 26 26 22 19 20 26 32 24 22 29 28 30 32 31 29 34 40 32 36 39 35 38 38 34 34 36 37 36 36 38 40 31 34 36 45 35 37 38 39 41 38 43 63 60
37 36 30 30 26 24 22 23 24 31 27 29 29 30 31 35 40 37 46 36 41 42 40 39 37 37 39 39 40 38 39 36 41 43 35 46 38 44 40 40 41 37 41 46 46
43 42 40 36 33 33 31 26 27 32 31 36 40 40 40 40 43 42 42 38 37 37 38 39 40 39 41 40 40 39 39 39 42 42 38 45 41 48 41 42 42 42 44 48 47
49 48 47 44 43 38 36 36 35 37 38 38 39 39 39 41 41 39 38 38 38 39 42 38 38 37 39 41 38 38 38 41 44 42 41 46 44 47 44 43 45 46 48 47 46
56 55 53 53 51 48 45 41 41 41 40 39 40 41 41 42 42 41 42 40 39 38 37 37 38 37 38 40 43 42 44 50 49 46 50 47 47 47 48 46 51 50 52 51 48
57 62 62 61 58 57 54 52 48 48 47 47 46 46 46 45 42 42 41 40 39 38 38 39 39 40 40 45 46 50 49 48 46 48 49 49 48 48 50 47 52 51 51 49 49
61 65 70 70 68 65 62 59 57 54 53 52 50 50 48 47 45 45 43 41 41 42 40 40 40 43 50 45 49 50 50 50 51 51 53 50 50 50 51 50 53 53 57 57 50
66 74 74 78 78 74 68 67 64 61 58 57 56 53 51 49 47 47 45 47 49 42 43 45 43 44 45 46 48 48 50 52 53 53 55 54 57 56 52 52 52 55 60 60 60
50 69 76 81 86 84 78 71 70 68 65 61 60 58 56 53 52 50 52 48 46 44 41 43 45 40 42 47 47 43 46 47 52 51 54 53 54 55 55 55 54 53 52 54 56
84 93 89 88 94 92 86 82 73 75 70 67 63 60 60 55 53 53 49 51 49 44 42 40 42 41 40 48 40 41 42 45 46 49 51 52 52 61 65 55 55 54 53 54 54
101 102 103 101 97 101 97 86 85 74 77 73 70 63 63 58 56 55 55 53 50 46 45 46 39 38 42 45 35 39 41 40 41 31 28 26 46 50 57 69 54 54 55 52 54
54 58 78 64 77 103 107 103 92 83 78 76 74 68 68 62 59 56 53 52 52 50 44 47 40 40 39 36 35 39 37 37 36 27 25 23 26 41 28 54 62 66 54 55 57
57 54 58 64 66 72 112 103 103 83 86 77 78 75 71 67 63 61 56 57 51 47 50 43 46 42 37 35 35 36 34 35 33 26 22 21 19 20 23 38 43 57 62 56 56
54 50 54 62 65 67 81 113 83 103 90 82 83 75 72 71 65 65 60 57 52 52 47 43 47 48 38 36 36 36 32 32 31 25 21 18 11 18 20 22 45 48 53 58 56
52 47 49 59 62 68 74 112 113 104 97 92 79 79 76 73 70 67 61 59 55 56 47 52 42 48 43 36 37 36 31 31 31 23 20 14 13 28 27 19 30 44 44 42 43
50 47 48 59 62 66 77 115 117 111 94 91 83 81 84 79 74 71 63 60 58 53 54 51 43 47 44 37 38 35 34 31 30 30 22 21 15 8 32 27 26 40 43 43 28
53 48 50 57 60 69 77 82 118 117 93 97 92 87 83 83 77 73 65 62 59 57 53 52 49 46 45 40 39 38 38 34 32 29 28 22 25 24 23 16 14 25 36 45 50
54 52 52 48 62 69 78 83 123 110 107 103 103 97 85 82 81 77 71 64 62 59 54 52 49 50 45 43 41 40 37 39 35 30 29 30 27 24 32 36 38 39 32 42 47
52 53 54 50 66 78 85 93 113 115 113 108 94 104 97 85 85 81 80 69 63 61 58 54 53 50 48 45 44 40 39 38 40 36 32 30 30 30 34 35 39 23 45 48 32
51 54 54 64 68 81 88 86 84 117 116 113 99 104 104 98 88 82 75 69 65 68 62 56 56 53 50 48 46 44 41 40 39 43 39 36 34 34 34 36 41 40 34 32 39
50 52 52 67 74 85 86 80 85 103 116 115 111 102 102 100 90 89 82 83 77 66 62 58 57 56 53 53 48 48 45 42 42 41 45 43 42 38 34 36 38 49 35 25 44
51 49 49 70 75 75 84 82 89 97 118 116 116 104 109 99 95 92 75 74 73 68 68 67 54 59 56 51 53 51 50 45 44 46 46 45 51 43 44 44 48 36 47 38 27
51 48 55 72 69 79 86 88 92 98 111 117 117 65 113 106 92 95 90 81 75 69 68 63 61 60 56 60 55 54 51 50 47 48 50 48 49 52 47 50 54 55 56 57 32
56 49 56 57 63 81 87 90 94 98 104 118 118 116 112 109 101 77 84 90 88 70 69 63 60 62 63 57 58 56 55 54 52 52 48 56 51 53 51 56 58 58 59 64 65
41 55 58 54 63 71 88 92 93 100 103 111 118 111 111 107 108 98 85 83 84 79 80 66 63 61 61 60 58 58 58 58 58 56 53 58 60 52 54 58 62 61 47 66 68
38 59 58 57 72 64 87 96 94 99 105 108 117 117 110 102 107 108 105 102 84 80 69 68 65 64 65 63 64 63 63 64 61 65 58 60 63 56 60 62 61 64 66 60 72
40 61 57 59 72 72 85 96 94 97 103 108 117 117 115 104 106 107 101 103 98 87 84 70 70 69 67 66 66 62 73 67 69 65 63 65 63 62 66 68 66 66 71 71 75
Wind_Direction
270 259 262 254 272 270 252 247 230 217 229 210 210 217 214 215 227 236 222 231 235 229 238 244 245 245 244 244 246 246 243 244 246 242 240 245 236 236 235 235 237 234 233 241 240
266 263 254 253 249 251 255 233 230 234 219 222 217 215 219 228 237 231 243 231 238 240 237 240 241 242 243 246 245 245 244 248 241 242 242 246 238 243 238 237 238 233 232 241 243
261 261 257 251 246 241 242 241 232 233 225 232 234 235 235 237 242 241 240 235 236 239 240 241 242 245 241 244 249 248 244 243 247 248 242 248 240 246 241 237 238 236 237 240 241
246 252 255 251 247 240 237 241 237 236 230 227 229 229 231 236 233 235 237 238 241 242 242 250 252 253 244 241 249 251 248 246 250 242 247 245 247 243 244 239 237 236 238 239 244
244 241 246 247 248 242 237 232 236 236 234 232 231 230 231 233 235 236 239 242 244 246 249 250 253 253 250 245 242 246 243 238 246 246 238 246 246 246 244 239 236 242 241 242 240
243 241 238 243 241 244 239 234 229 232 234 233 234 236 237 236 237 239 238 239 242 244 246 247 248 247 251 246 250 246 247 246 251 253 246 245 246 245 247 240 242 241 240 243 243
252 242 238 237 239 240 240 235 232 230 232 233 234 234 237 239 238 239 239 239 238 242 249 252 253 254 249 256 258 259 258 257 255 255 250 246 247 246 241 243 245 242 239 242 243
256 244 238 237 234 236 238 236 235 229 228 232 234 233 235 237 238 236 238 235 239 246 246 246 250 252 252 254 258 263 263 260 257 257 256 255 253 249 242 239 240 241 243 244 244
265 259 250 235 232 232 233 238 234 233 229 227 233 235 234 235 238 241 235 237 243 250 249 250 250 257 253 253 259 272 268 266 266 263 261 254 251 250 247 243 239 240 241 242 245
282 273 265 235 226 229 232 230 235 232 230 229 226 229 233 229 230 231 241 239 242 251 248 256 252 251 263 255 273 271 265 265 268 265 262 257 252 247 244 246 244 241 239 241 241
274 265 259 254 246 221 225 234 228 235 230 229 228 226 232 232 234 238 234 236 242 245 242 245 252 259 252 261 277 271 271 271 267 299 299 285 252 249 245 241 245 244 244 243 245
274 263 258 249 243 225 220 223 228 228 231 229 230 229 229 230 228 230 234 234 239 241 247 244 252 249 254 272 278 269 274 273 277 312 308 296 275 250 258 243 241 242 244 244 246
278 261 253 245 238 233 218 224 222 229 227 230 228 231 229 230 229 233 231 235 236 247 242 248 249 253 256 270 280 270 274 273 279 313 319 309 293 271 259 246 244 242 243 245 247
276 264 250 240 236 226 227 219 231 223 224 229 226 229 231 230 232 232 229 232 234 238 243 248 243 250 255 268 279 266 272 270 275 294 317 341 305 285 259 250 243 241 244 248 250
272 256 249 237 232 222 226 217 219 221 222 223 229 229 229 231 232 232 232 235 234 237 241 241 249 247 251 267 275 266 272 265 271 288 287 309 333 251 255 247 237 247 246 251 248
267 254 240 235 230 217 224 215 217 220 220 224 229 228 230 232 231 233 232 232 235 237 239 249 246 244 249 263 267 274 269 267 263 262 272 267 269 308 249 251 241 244 251 248 249
263 252 240 233 226 213 221 219 216 216 221 218 226 229 229 231 232 233 230 232 235 235 236 243 242 248 247 253 261 271 266 269 263 260 257 261 254 249 254 254 260 252 251 251 254
256 248 235 226 221 208 216 218 214 212 217 218 220 228 229 230 231 233 234 230 234 234 235 241 245 251 247 251 256 265 269 265 268 265 261 254 254 253 247 251 253 257 251 258 261
244 239 227 221 218 208 214 217 212 212 213 217 226 223 228 229 230 232 235 232 233 231 239 238 244 248 248 251 256 263 268 267 267 267 267 261 262 257 254 254 256 245 260 261 248
242 233 226 220 217 208 215 220 210 213 214 213 223 223 225 228 228 231 231 230 231 240 240 240 244 245 246 249 251 254 263 267 265 267 265 264 260 261 260 257 259 256 254 252 262
240 232 226 219 216 207 214 216 208 214 213 215 220 225 227 228 228 230 231 235 237 233 232 235 242 246 245 249 251 253 256 261 268 267 266 268 266 265 256 253 257 267 257 261 267
238 232 224 217 214 212 212 213 208 211 211 215 216 225 224 230 229 229 228 230 233 235 238 242 234 247 247 247 255 253 256 260 263 268 266 270 271 271 272 271 268 257 268 256 263
234 229 219 215 216 210 208 212 209 210 210 213 217 223 224 229 233 231 231 232 232 233 235 233 240 240 243 253 252 253 257 256 261 264 267 269 273 275 276 276 277 277 277 278 271
228 225 220 221 216 208 208 211 210 208 211 213 216 220 222 225 232 230 233 236 237 231 233 231 237 244 248 248 254 252 255 257 256 261 267 265 269 273 276 279 277 280 288 288 288
224 221 214 218 214 211 207 213 209 208 211 212 217 220 223 223 229 233 235 236 238 236 239 233 233 235 243 244 250 249 253 255 258 263 261 269 269 271 269 274 279 280 272 288 291
232 215 213 213 210 212 205 213 210 209 211 211 217 219 223 226 225 230 233 237 238 239 236 235 235 244 238 245 247 252 254 255 256 266 260 265 266 269 273 273 273 279 283 280 290
215 212 211 215 209 209 203 208 213 210 211 211 215 219 222 226 227 228 232 234 237 241 241 235 236 245 239 245 247 252 255 257 263 260 262 265 267 269 275 278 276 280 282 285 289